| time (UTC) | temp F | wind direction | speed MPH | gust MPH | rain 1hr in | rain 24hr in | rain mn in | humidity % | barometer mb |
| 20260503014016 | 74 | 90 | 1.0 | 2.0 | 0.00 | 0.00 | 0.00 | 32 | 1014.9 |
| 20260503012516 | 76 | 90 | 1.0 | 2.0 | 0.00 | 0.00 | 0.00 | 29 | 1015.0 |
| 20260503011016 | 77 | 90 | 1.0 | 3.0 | 0.00 | 0.00 | 0.00 | 28 | 1015.2 |
| 20260503005516 | 77 | 68 | 2.0 | 5.0 | 0.00 | 0.00 | 0.00 | 27 | 1015.1 |
| 20260503004015 | 77 | 45 | 3.0 | 7.0 | 0.00 | 0.00 | 0.00 | 27 | 1015.3 |
| 20260503002515 | 76 | 45 | 1.0 | 4.0 | 0.00 | 0.00 | 0.00 | 29 | 1015.4 |
| 20260503001015 | 77 | 135 | 1.0 | 3.0 | 0.00 | 0.00 | 0.00 | 29 | 1015.5 |
| 20260502235515 | 77 | 203 | 2.0 | 3.0 | 0.00 | 0.00 | 0.00 | 30 | 1015.6 |
| 20260502234036 | 74 | 203 | 2.0 | 4.0 | 0.00 | 0.00 | 0.00 | 36 | 1015.6 |
| 20260502232515 | 80 | 68 | 3.0 | 6.0 | 0.00 | 0.00 | 0.00 | 24 | 1015.9 |
| 20260502231016 | 81 | 45 | 2.0 | 6.0 | 0.00 | 0.00 | 0.00 | 23 | 1016.3 |
| 20260502225516 | 78 | 158 | 2.0 | 5.0 | 0.00 | 0.00 | 0.00 | 31 | 1016.6 |
| 20260502224055 | 76 | 158 | 2.0 | 5.0 | 0.00 | 0.00 | 0.00 | 31 | 1016.7 |
| 20260502222535 | 76 | 135 | 3.0 | 5.0 | 0.00 | 0.00 | 0.00 | 31 | 1017.0 |
| 20260502221016 | 75 | 158 | 2.0 | 4.0 | 0.00 | 0.00 | 0.00 | 33 | 1017.1 |
| 20260502215516 | 75 | 158 | 3.0 | 5.0 | 0.00 | 0.00 | 0.00 | 35 | 1017.4 |
| 20260502214016 | 74 | 180 | 2.0 | 6.0 | 0.00 | 0.00 | 0.00 | 33 | 1017.4 |
| 20260502212515 | 75 | 158 | 2.0 | 4.0 | 0.00 | 0.00 | 0.00 | 31 | 1017.7 |
| 20260502211015 | 75 | 180 | 3.0 | 7.0 | 0.00 | 0.00 | 0.00 | 33 | 1017.8 |
| 20260502205535 | 74 | 158 | 3.0 | 6.0 | 0.00 | 0.00 | 0.00 | 33 | 1018.2 |
| 20260502204015 | 75 | 45 | 4.0 | 7.0 | 0.00 | 0.00 | 0.00 | 31 | 1018.6 |
| 20260502202535 | 73 | 113 | 3.0 | 6.0 | 0.00 | 0.00 | 0.00 | 36 | 1018.7 |
| 20260502201015 | 70 | 180 | 3.0 | 9.0 | 0.00 | 0.00 | 0.00 | 39 | 1018.8 |
| 20260502195537 | 69 | 180 | 3.0 | 5.0 | 0.00 | 0.00 | 0.00 | 43 | 1019.0 |
| 20260502194017 | 73 | 90 | 2.0 | 5.0 | 0.00 | 0.00 | 0.00 | 38 | 1019.3 |
| 20260502192537 | 72 | 113 | 2.0 | 5.0 | 0.00 | 0.00 | 0.00 | 39 | 1019.4 |
| 20260502191017 | 71 | 113 | 2.0 | 6.0 | 0.00 | 0.00 | 0.00 | 40 | 1019.7 |
| 20260502185557 | 71 | 113 | 2.0 | 6.0 | 0.00 | 0.00 | 0.00 | 42 | 1020.0 |
| 20260502184037 | 70 | 90 | 3.0 | 7.0 | 0.00 | 0.00 | 0.00 | 44 | 1020.3 |
| 20260502182517 | 69 | 45 | 4.0 | 8.0 | 0.00 | 0.00 | 0.00 | 43 | 1020.5 |
| 20260502181017 | 66 | 203 | 2.0 | 5.0 | 0.00 | 0.00 | 0.00 | 48 | 1020.5 |
| 20260502164017 | 62 | 23 | 2.0 | 4.0 | 0.00 | 0.00 | 0.00 | 53 | 1021.0 |
| 20260502162517 | 61 | 45 | 2.0 | 5.0 | 0.00 | 0.00 | 0.00 | 57 | 1021.0 |
| 20260502161017 | 60 | 90 | 1.0 | 4.0 | 0.00 | 0.00 | 0.00 | 58 | 1021.0 |
| 20260502151017 | 57 | 68 | 1.0 | 3.0 | 0.00 | 0.00 | 0.00 | 65 | 1020.7 |
| 20260502122517 | 52 | 0.0 | 0.0 | 0.00 | 0.00 | 0.00 | 64 | 1019.3 | |
| 20260502121036 | 52 | 0.0 | 0.0 | 0.00 | 0.00 | 0.00 | 63 | 1019.2 | |
| 20260502115516 | 53 | 0.0 | 1.0 | 0.00 | 0.00 | 0.00 | 61 | 1019.1 | |
| 20260502114016 | 53 | 0.0 | 1.0 | 0.00 | 0.00 | 0.00 | 61 | 1019.0 | |
| 20260502112516 | 53 | 0.0 | 0.0 | 0.00 | 0.00 | 0.00 | 61 | 1018.9 | |
| 20260502111016 | 54 | 0.0 | 0.0 | 0.00 | 0.00 | 0.00 | 60 | 1019.0 | |
| 20260502105516 | 55 | 0.0 | 0.0 | 0.00 | 0.00 | 0.00 | 60 | 1019.0 | |
| 20260502104056 | 55 | 0.0 | 0.0 | 0.00 | 0.00 | 0.00 | 60 | 1018.8 | |
| 20260502102516 | 56 | 0.0 | 0.0 | 0.00 | 0.00 | 0.00 | 58 | 1018.7 | |
| 20260502101016 | 56 | 0.0 | 2.0 | 0.00 | 0.00 | 0.00 | 58 | 1018.7 | |
| 20260502091016 | 56 | 0.0 | 2.0 | 0.00 | 0.00 | 0.00 | 57 | 1018.0 | |
| 20260502071015 | 60 | 0.0 | 1.0 | 0.00 | 0.00 | 0.00 | 51 | 1017.4 | |
| 20260502065517 | 60 | 0.0 | 0.0 | 0.00 | 0.00 | 0.00 | 51 | 1017.3 | |
| 20260502064017 | 62 | 248 | 1.0 | 3.0 | 0.00 | 0.00 | 0.00 | 48 | 1017.2 |
| 20260502062517 | 64 | 248 | 2.0 | 5.0 | 0.00 | 0.00 | 0.00 | 46 | 1017.0 |
| 20260502061016 | 64 | 45 | 1.0 | 2.0 | 0.00 | 0.00 | 0.00 | 42 | 1016.7 |
| 20260502055516 | 64 | 45 | 1.0 | 2.0 | 0.00 | 0.00 | 0.00 | 47 | 1016.9 |
| 20260502054016 | 64 | 68 | 1.0 | 3.0 | 0.00 | 0.00 | 0.00 | 52 | 1016.8 |
| 20260502052516 | 65 | 0.0 | 1.0 | 0.00 | 0.00 | 0.00 | 47 | 1016.9 | |
| 20260502051016 | 65 | 45 | 4.0 | 6.0 | 0.00 | 0.00 | 0.00 | 46 | 1016.8 |
| 20260502045516 | 69 | 158 | 3.0 | 6.0 | 0.00 | 0.00 | 0.00 | 43 | 1016.7 |
| 20260502044016 | 70 | 338 | 2.0 | 6.0 | 0.00 | 0.00 | 0.00 | 33 | 1016.3 |
| 20260502042516 | 69 | 293 | 1.0 | 6.0 | 0.00 | 0.00 | 0.00 | 35 | 1016.2 |
| 20260502041016 | 69 | 0.0 | 2.0 | 0.00 | 0.00 | 0.00 | 35 | 1016.0 | |
| 20260502035516 | 70 | 0 | 1.0 | 4.0 | 0.00 | 0.00 | 0.00 | 34 | 1015.8 |
| 20260502034016 | 70 | 0.0 | 2.0 | 0.00 | 0.00 | 0.00 | 33 | 1015.6 | |
| 20260502032516 | 70 | 293 | 1.0 | 4.0 | 0.00 | 0.00 | 0.00 | 33 | 1015.5 |
| 20260502031016 | 70 | 68 | 1.0 | 4.0 | 0.00 | 0.00 | 0.00 | 33 | 1015.4 |
| 20260502025516 | 70 | 23 | 1.0 | 2.0 | 0.00 | 0.00 | 0.00 | 33 | 1015.3 |
| 20260502024016 | 70 | 45 | 2.0 | 6.0 | 0.00 | 0.00 | 0.00 | 33 | 1015.2 |
| 20260502022516 | 70 | 338 | 1.0 | 6.0 | 0.00 | 0.00 | 0.00 | 34 | 1015.0 |
| 20260502021016 | 69 | 270 | 1.0 | 3.0 | 0.00 | 0.00 | 0.00 | 38 | 1014.7 |
| 20260502015516 | 66 | 158 | 2.0 | 6.0 | 0.00 | 0.00 | 0.00 | 49 | 1014.6 |